| time (UTC) | temp F | wind direction | speed knots | gust knots | rain 1hr in | rain 24hr in | rain mn in | humidity % | barometer mb |
| 20260505010019 | 63 | 180 | 0.0 | 5.2 | 0.00 | 0.00 | 0.00 | 43 | 1011.8 |
| 20260505004520 | 61 | 300 | 0.0 | 0.0 | 0.00 | 0.00 | 0.00 | 42 | 1011.4 |
| 20260505003022 | 61 | 334 | 0.0 | 0.0 | 0.00 | 0.00 | 0.00 | 42 | 1011.0 |
| 20260505001518 | 62 | 222 | 0.0 | 0.0 | 0.00 | 0.00 | 0.00 | 41 | 1010.7 |
| 20260505000017 | 63 | 222 | 0.0 | 0.0 | 0.00 | 0.00 | 0.00 | 40 | 1010.5 |
| 20260504234521 | 64 | 82 | 0.0 | 0.0 | 0.00 | 0.00 | 0.00 | 38 | 1010.2 |
| 20260504233016 | 66 | 164 | 0.0 | 0.0 | 0.00 | 0.00 | 0.00 | 36 | 1010.1 |
| 20260504231515 | 67 | 28 | 0.0 | 0.9 | 0.00 | 0.00 | 0.00 | 37 | 1010.0 |
| 20260504230016 | 68 | 284 | 0.0 | 0.0 | 0.00 | 0.00 | 0.00 | 35 | 1009.8 |
| 20260504224514 | 69 | 196 | 0.0 | 2.6 | 0.00 | 0.00 | 0.00 | 35 | 1009.6 |
| 20260504223014 | 69 | 6 | 0.0 | 0.0 | 0.00 | 0.00 | 0.00 | 33 | 1009.6 |
| 20260504221514 | 69 | 227 | 0.0 | 3.5 | 0.00 | 0.00 | 0.00 | 33 | 1009.4 |
| 20260504220013 | 70 | 20 | 0.0 | 4.3 | 0.00 | 0.00 | 0.00 | 32 | 1009.4 |
| 20260504214512 | 70 | 232 | 0.0 | 3.5 | 0.00 | 0.00 | 0.00 | 34 | 1009.4 |
| 20260504213016 | 70 | 276 | 0.0 | 1.7 | 0.00 | 0.00 | 0.00 | 31 | 1009.4 |
| 20260504211511 | 71 | 143 | 0.0 | 0.9 | 0.00 | 0.00 | 0.00 | 30 | 1009.4 |
| 20260504210010 | 71 | 260 | 0.0 | 2.6 | 0.00 | 0.00 | 0.00 | 30 | 1009.4 |
| 20260504204509 | 71 | 243 | 0.0 | 0.9 | 0.00 | 0.00 | 0.00 | 29 | 1009.3 |
| 20260504203015 | 71 | 237 | 0.0 | 3.5 | 0.00 | 0.00 | 0.00 | 29 | 1009.3 |
| 20260504201508 | 72 | 307 | 0.0 | 4.3 | 0.00 | 0.00 | 0.00 | 29 | 1009.3 |
| 20260504200007 | 72 | 117 | 0.0 | 6.1 | 0.00 | 0.00 | 0.00 | 28 | 1009.3 |
| 20260504194507 | 72 | 277 | 0.0 | 7.8 | 0.00 | 0.00 | 0.00 | 28 | 1009.3 |
| 20260504193013 | 73 | 331 | 0.0 | 1.7 | 0.00 | 0.00 | 0.00 | 28 | 1009.6 |
| 20260504191513 | 72 | 274 | 0.0 | 7.8 | 0.00 | 0.00 | 0.00 | 30 | 1009.6 |
| 20260504190002 | 71 | 39 | 0.0 | 0.9 | 0.00 | 0.00 | 0.00 | 29 | 1009.7 |
| 20260504184501 | 72 | 277 | 0.0 | 8.7 | 0.00 | 0.00 | 0.00 | 29 | 1009.9 |
| 20260504183101 | 73 | 162 | 0.0 | 7.8 | 0.00 | 0.00 | 0.00 | 29 | 1009.8 |
| 20260504181559 | 72 | 271 | 0.0 | 3.5 | 0.00 | 0.00 | 0.00 | 28 | 1009.9 |
| 20260504180059 | 72 | 124 | 0.0 | 6.1 | 0.00 | 0.00 | 0.00 | 29 | 1010.0 |
| 20260504174559 | 72 | 258 | 0.0 | 4.3 | 0.00 | 0.00 | 0.00 | 29 | 1010.0 |
| 20260504173056 | 71 | 273 | 0.0 | 5.2 | 0.00 | 0.00 | 0.00 | 29 | 1010.3 |
| 20260504171551 | 71 | 257 | 0.0 | 8.7 | 0.00 | 0.00 | 0.00 | 30 | 1010.3 |
| 20260504081523 | 40 | 142 | 0.0 | 0.0 | 0.00 | 0.01 | 0.00 | 76 | 1013.9 |
| 20260504050115 | 34 | 59 | 0.0 | 0.0 | 0.00 | 0.01 | 0.00 | 84 | 1013.6 |
| 20260504044556 | 34 | 59 | 0.0 | 0.0 | 0.00 | 0.02 | 0.00 | 83 | 1013.6 |
| 20260504043107 | 35 | 59 | 0.0 | 0.0 | 0.00 | 0.02 | 0.00 | 83 | 1013.5 |
| 20260504041554 | 35 | 59 | 0.0 | 0.0 | 0.00 | 0.02 | 0.00 | 82 | 1013.4 |
| 20260504040058 | 35 | 48 | 0.0 | 0.0 | 0.00 | 0.02 | 0.00 | 83 | 1013.4 |
| 20260504034552 | 35 | 48 | 0.0 | 0.0 | 0.00 | 0.02 | 0.02 | 81 | 1013.2 |
| 20260504033056 | 36 | 49 | 0.0 | 0.0 | 0.00 | 0.02 | 0.02 | 80 | 1013.2 |
| 20260504031558 | 35 | 34 | 0.0 | 0.0 | 0.00 | 0.02 | 0.02 | 81 | 1013.2 |
| 20260504030049 | 35 | 34 | 0.0 | 0.0 | 0.00 | 0.02 | 0.02 | 80 | 1013.2 |
| 20260504024548 | 36 | 34 | 0.0 | 0.0 | 0.00 | 0.02 | 0.02 | 77 | 1013.1 |
| 20260504023045 | 37 | 34 | 0.0 | 0.0 | 0.00 | 0.02 | 0.02 | 75 | 1013.2 |
| 20260504021542 | 37 | 34 | 0.0 | 0.0 | 0.00 | 0.02 | 0.02 | 72 | 1013.1 |
| 20260504020041 | 38 | 33 | 0.0 | 0.0 | 0.00 | 0.02 | 0.02 | 71 | 1013.1 |
| 20260504014553 | 39 | 34 | 0.0 | 0.0 | 0.00 | 0.02 | 0.02 | 69 | 1013.0 |
| 20260504013041 | 39 | 34 | 0.0 | 0.0 | 0.00 | 0.02 | 0.02 | 67 | 1013.0 |
| 20260504011533 | 41 | 34 | 0.0 | 0.0 | 0.00 | 0.02 | 0.02 | 63 | 1012.9 |